Weather History for Eureka Airport, NV

Change the Weather History Date:

Thursday, May 10, 2012

  Actual Average Record
Temperature  
Mean Temperature 54 °F -  
Max Temperature 71 °F - - ()
Min Temperature 35 °F - - ()
Degree Days  
Heating Degree Days 11    
Growing Degree Days 4 (Base 50)    
Moisture  
Dew Point 21 °F    
Average Humidity 28    
Maximum Humidity 45    
Minimum Humidity 15    
Precipitation  
Precipitation 0.00 in - - ()
Sea Level Pressure  
Sea Level Pressure 30.07 in    
Wind  
Wind Speed 8 mph ()    
Max Wind Speed 17 mph    
Max Gust Speed 31 mph    
Visibility 10.0 miles    
Events      
T = Trace of Precipitation, MM = Missing Value Source: Averaged Metar Reports

Daily Weather History Graph

Daily Weather History Graph

Search for Another Location

Airport:

Trip Planner

Search our weather history database for the weather conditions in past years. The results will help you decide how hot, cold, wet, or windy it might be!

Date:

Astronomy

May. 10, 2012 Rise Set
Actual Time 5:34 AM PDT 7:47 PM PDT
Civil Twilight 5:04 AM PDT 8:17 PM PDT
Nautical Twilight 4:27 AM PDT 8:54 PM PDT
Astronomical Twilight 3:46 AM PDT 9:34 PM PDT
Moon No Moon Rise 10:03 AM PDT (5/10)
Length of Visible Light 15h 13m
Length of Day
14h 13m
Waning Gibbous, 72% of the Moon is Illuminated
May 10
Waning Gibbous
May 12
Last Quarter
May 20
New
May 28
First Quarter
Jun 4
Full

Hourly Weather History & Observations

Time (PDT) Temp. Windchill Dew Point Humidity Pressure Visibility Wind Dir Wind Speed Gust Speed Precip Events Conditions
12:00 AM 44.6 °F 40.7 °F 12.2 °F 27% 30.00 in 10.0 mi South 6.9 mph - N/A   Clear
12:20 AM 48.2 °F - 10.4 °F 22% 30.00 in 10.0 mi South 6.9 mph - N/A   Clear
1:00 AM 41.0 °F 35.8 °F 14.0 °F 33% 30.00 in 10.0 mi South 8.1 mph - N/A   Clear
1:20 AM 44.6 °F 39.2 °F 10.4 °F 25% 30.00 in 10.0 mi West 10.4 mph - N/A   Clear
2:00 AM 46.4 °F 42.4 °F 10.4 °F 23% 30.00 in 10.0 mi SSW 8.1 mph - N/A   Clear
2:20 AM 44.6 °F - 15.8 °F 31% 30.01 in 10.0 mi Calm Calm - N/A   Clear
3:00 AM 44.6 °F 41.4 °F 17.6 °F 34% 30.02 in 10.0 mi ESE 5.8 mph - N/A   Clear
3:20 AM 44.6 °F - 14.0 °F 29% 30.02 in 10.0 mi Calm Calm - N/A   Clear
3:40 AM 44.6 °F - 17.6 °F 34% 30.03 in 10.0 mi Calm Calm - N/A   Clear
4:00 AM 48.2 °F - 15.8 °F 27% 30.02 in 10.0 mi South 6.9 mph - N/A   Clear
4:20 AM 46.4 °F 42.9 °F 17.6 °F 32% 30.02 in 10.0 mi SSW 6.9 mph - N/A   Clear
4:40 AM 41.0 °F - 17.6 °F 39% 30.02 in 10.0 mi Calm Calm - N/A   Clear
5:00 AM 39.2 °F - 17.6 °F 42% 30.03 in 10.0 mi Calm Calm - N/A   Clear
5:20 AM 39.2 °F 35.9 °F 17.6 °F 42% 30.03 in 10.0 mi SE 4.6 mph - N/A   Clear
5:40 AM 41.0 °F - 17.6 °F 39% 30.04 in 10.0 mi Calm Calm - N/A   Clear
6:00 AM 37.4 °F - 17.6 °F 45% 30.05 in 10.0 mi Calm Calm - N/A   Clear
6:20 AM 39.2 °F 34.2 °F 17.6 °F 42% 30.05 in 10.0 mi SW 6.9 mph - N/A   Clear
6:40 AM 42.8 °F - 17.6 °F 36% 30.07 in 10.0 mi Calm Calm - N/A   Clear
7:00 AM 48.2 °F - 19.4 °F 32% 30.08 in 10.0 mi Calm Calm - N/A   Clear
7:20 AM 53.6 °F - 26.6 °F 35% 30.10 in 10.0 mi NNW 17.3 mph - N/A   Clear
7:40 AM 53.6 °F - 32.0 °F 44% 30.12 in 10.0 mi North 17.3 mph 25.3 mph N/A   Clear
8:00 AM 55.4 °F - 32.0 °F 41% 30.13 in 10.0 mi North 15.0 mph 21.9 mph N/A   Clear
8:20 AM 55.4 °F - 30.2 °F 38% 30.14 in 10.0 mi North 15.0 mph - N/A   Clear
8:40 AM 57.2 °F - 32.0 °F 38% 30.14 in 10.0 mi North 16.1 mph - N/A   Clear
9:00 AM 59.0 °F - 32.0 °F 36% 30.13 in 10.0 mi NNE 13.8 mph 20.7 mph N/A   Clear
9:20 AM 59.0 °F - 32.0 °F 36% 30.13 in 10.0 mi North 13.8 mph - N/A   Clear
9:40 AM 59.0 °F - 32.0 °F 36% 30.12 in 10.0 mi NNW 12.7 mph 18.4 mph N/A   Clear
10:00 AM 60.8 °F - 32.0 °F 34% 30.12 in 10.0 mi NNW 12.7 mph 17.3 mph N/A   Clear
10:20 AM 62.6 °F - 32.0 °F 32% 30.13 in 10.0 mi North 9.2 mph 16.1 mph N/A   Clear
10:40 AM 62.6 °F - 32.0 °F 32% 30.12 in 10.0 mi NNW 15.0 mph - N/A   Clear
11:00 AM 64.4 °F - 30.2 °F 28% 30.12 in 10.0 mi NE 9.2 mph 19.6 mph N/A   Unknown
11:20 AM 64.4 °F - 30.2 °F 28% 30.11 in 10.0 mi ENE 12.7 mph 17.3 mph N/A   Clear
11:40 AM 64.4 °F - 28.4 °F 26% 30.11 in 10.0 mi North 9.2 mph 17.3 mph N/A   Clear
12:00 PM 66.2 °F - 28.4 °F 24% 30.10 in 10.0 mi NE 10.4 mph - N/A   Clear
12:20 PM 66.2 °F - 28.4 °F 24% 30.09 in 10.0 mi NNE 10.4 mph 16.1 mph N/A   Clear
12:40 PM 66.2 °F - 26.6 °F 23% 30.09 in 10.0 mi North 9.2 mph - N/A   Clear
1:00 PM 68.0 °F - 26.6 °F 21% 30.08 in 10.0 mi North 11.5 mph 16.1 mph N/A   Clear
1:20 PM 68.0 °F - 26.6 °F 21% 30.07 in 10.0 mi NNE 12.7 mph 21.9 mph N/A   Clear
1:40 PM 69.8 °F - 24.8 °F 18% 30.07 in 10.0 mi NE 11.5 mph 20.7 mph N/A   Clear
2:00 PM 69.8 °F - 24.8 °F 18% 30.07 in 10.0 mi NNE 17.3 mph - N/A   Partly Cloudy
2:20 PM 71.6 °F - 24.8 °F 17% 30.06 in 10.0 mi NNE 13.8 mph 20.7 mph N/A   Partly Cloudy
3:00 PM 71.6 °F - 24.8 °F 17% 30.06 in 10.0 mi NNE 13.8 mph 26.5 mph N/A   Clear
3:20 PM 69.8 °F - 24.8 °F 18% 30.04 in 10.0 mi NNE 12.7 mph 31.1 mph N/A   Clear
3:40 PM 69.8 °F - 24.8 °F 18% 30.04 in 10.0 mi NNW 15.0 mph 20.7 mph N/A   Clear
4:00 PM 71.6 °F - 23.0 °F 16% 30.04 in 10.0 mi North 11.5 mph 21.9 mph N/A   Clear
4:20 PM 69.8 °F - 23.0 °F 17% 30.04 in 10.0 mi NNW 16.1 mph 20.7 mph N/A   Clear
4:40 PM 68.0 °F - 21.2 °F 17% 30.04 in 10.0 mi North 17.3 mph 27.6 mph N/A   Clear
5:00 PM 68.0 °F - 19.4 °F 16% 30.04 in 10.0 mi North 13.8 mph 21.9 mph N/A   Clear
5:20 PM 68.0 °F - 19.4 °F 16% 30.04 in 10.0 mi NNE 17.3 mph 24.2 mph N/A   Clear
5:40 PM 66.2 °F - 17.6 °F 15% 30.04 in 10.0 mi NNE 16.1 mph 24.2 mph N/A   Clear
6:00 PM 66.2 °F - 17.6 °F 15% 30.04 in 10.0 mi North 12.7 mph 23.0 mph N/A   Clear
6:20 PM 64.4 °F - 17.6 °F 16% 30.04 in 10.0 mi North 16.1 mph 20.7 mph N/A   Clear
6:40 PM 62.6 °F - 17.6 °F 18% 30.04 in 10.0 mi North 15.0 mph - N/A   Clear
7:00 PM 62.6 °F - 15.8 °F 16% 30.04 in 10.0 mi North 12.7 mph - N/A   Clear
7:20 PM 59.0 °F - 15.8 °F 19% 30.04 in 10.0 mi North 8.1 mph - N/A   Clear
7:40 PM 55.4 °F - 17.6 °F 23% 30.05 in 10.0 mi North 10.4 mph - N/A   Clear
8:00 PM 53.6 °F - 17.6 °F 24% 30.05 in 10.0 mi North 6.9 mph - N/A   Clear
8:20 PM 50.0 °F - 19.4 °F 30% 30.06 in 10.0 mi North 6.9 mph - N/A   Clear
8:40 PM 46.4 °F 43.5 °F 19.4 °F 34% 30.06 in 10.0 mi NE 5.8 mph - N/A   Clear
9:00 PM 44.6 °F 41.4 °F 15.8 °F 31% 30.07 in 10.0 mi NE 5.8 mph - N/A   Clear
9:20 PM 44.6 °F - 14.0 °F 29% 30.08 in 10.0 mi Calm Calm - N/A   Clear
9:40 PM 44.6 °F - 15.8 °F 31% 30.09 in 10.0 mi Calm Calm - N/A   Clear
10:00 PM 44.6 °F - 14.0 °F 29% 30.09 in 10.0 mi Calm Calm - N/A   Clear
10:20 PM 41.0 °F - 10.4 °F 29% 30.10 in 10.0 mi Calm Calm - N/A   Clear
10:40 PM 37.4 °F 32.8 °F 14.0 °F 38% 30.09 in 10.0 mi South 5.8 mph - N/A   Clear
11:00 PM 37.4 °F - 10.4 °F 33% 30.09 in 10.0 mi Calm Calm - N/A   Clear
11:20 PM 37.4 °F 33.8 °F 10.4 °F 33% 30.09 in 10.0 mi SSE 4.6 mph - N/A   Clear
11:40 PM 35.6 °F - 14.0 °F 41% 30.10 in 10.0 mi Calm Calm - N/A   Clear